STARLINK-11313, 61255

Orbit data source: Space-Track

STARLINK-11313, 61255 is a payload satellite owned by SpaceX/Seattle (US) in LEO that was launched on Wed, 25 Sep 2024 UTC via an FALCON 9 launch vehicle from the Air Force Western Test Range (AFWTR). Payload-class satellites include a variety of spacecraft equipped with specific instruments for various scientific and technological missions. These include communications satellites like Starlink; space stations such as the ISS; scientific satellites like the Hubble; Earth observation satellites from companies like Planet Labs, Umbra, and HawkEye 360; GPS; miniature CubeSats for education and research; and military/defense satellites.

Loading next visibility...
Identifier
61255, 2024-175N
Orbit
LEO
Country
Flag of USUS
Related business
Manufacturer
SpaceX/Seattle
Mission
Operational Commercial Communications
Bus & Motor
STARLINK V2MD, Unknown motor
Mass
960 kg wet, ~910 kg dry
Launch date (UTC)
2024-09-25 (1 year ago)
Launch vehicle
FALCON 9
Launch site
Air Force Western Test Range (AFWTR)
Object type
Payload
Rocket body
Debris
Shape & HBR
Box + 2 Pan, 14.5 m
Radar Cross Section
36.964 m², Large (>1 m²)

Expand to show TLE details & history
Last TLE update: 21 hours ago

TLE from 21 hours ago
0 STARLINK-11313
1 61255U 24175N   25261.19839428  .00001107  00000-0  13992-4 0  9995
2 61255  53.1592 186.6649 0001166  60.8440 299.2695 15.69709958 56273
Epoch: 2025-09-18T04:45Z
TLE epoch observation values (Epoch: 2025-09-18T04:45:41.265Z)
Latitude
Longitude
117.87953°
Altitude
360.258 km
Speed
7.695 km/s
True Right ascension
12h 26m 39s
True Declination
0° 00' 00"
Sunlit
Object was in daylight at epoch
Visualization orbit readout
Latitude
Unknown
Longitude
Unknown
Altitude
Unknown
Speed
Unknown
Apparent Right ascension
Unknown
Apparent Declination
Unknown
Sunlit
N/A
Visualization observer readout
Local Sidereal Time
18:52:15
Azimuth
Unknown
Elevation
Unknown
Doppler factor
Unknown
Orbital elements
Apogee altitude
360.773 km
Perigee altitude
359.202 km
Semi-major axis
6,738.125 km
Eccentricity
0.00012
Inclination
53.1592°
RAAN
186.6649°
Arg. of periapsis
60.844°
True anomaly
299.25784°
Mean anomaly
299.2695°
Eccentric anomaly
299.26367°
Mean motion
3.92405 °/min
Orbital period
91.74 mins
BSTAR
0.000013992
Loading maneuver chart data...
Computing Atmospheric mass density...
Loading historical data...
Loading historical data...
Loading historical data...
Loading historical data...
Loading historical data...
Loading historical data...
Loading historical data...

Documentation

Showing up to 5 results
|